Location: Ferchesar
(52.6477°N, 12.4298°E)
Time: 08:46:59
(UTC+01:00)

SR - Visible Passes

Search period start: 02 December 2021 00:00
Search period end: 12 December 2021 00:00
Orbit: 583 x 871 km, 66.7° (Epoch: 01 December)

Date Brightness Start Highest point End Pass type
(mag) Time Alt. Az. Time Alt. Az. Time Alt. Az.
02 Dec ? 05:50:25 13° N 05:52:20 17° NNE 05:55:07 10° ENE visible
03 Dec ? 05:01:54 14° N 05:01:54 14° N 05:04:08 10° NE visible
03 Dec ? 06:41:25 10° NNW 06:45:13 30° NE 06:49:07 10° E visible
04 Dec ? 05:52:46 15° NNW 05:55:00 21° NNE 05:58:21 10° ENE visible
05 Dec ? 05:04:16 16° NNE 05:04:39 16° NNE 05:07:23 10° ENE visible
05 Dec ? 06:43:40 11° NNW 06:47:40 46° NE 06:51:56 10° ESE visible
06 Dec ? 04:15:47 12° NNE 04:15:47 12° NNE 04:16:24 10° NE visible
06 Dec ? 05:55:10 18° NNW 05:57:34 29° NE 06:01:25 10° E visible
07 Dec ? 05:06:42 20° NNE 05:07:20 20° NNE 05:10:37 10° ENE visible
07 Dec ? 06:46:06 12° NW 06:50:01 75° NE 06:54:29 10° SE visible
08 Dec ? 04:18:16 14° NE 04:18:16 14° NE 04:19:39 10° ENE visible
08 Dec ? 05:57:40 22° NNW 06:00:01 43° NE 06:04:16 10° ESE visible
09 Dec ? 05:09:15 27° NNE 05:09:54 28° NE 05:13:43 10° E visible
09 Dec ? 06:48:39 14° NW 06:52:14 64° SW 06:56:41 10° SSE visible
10 Dec ? 04:20:52 18° NE 04:20:52 18° NE 04:22:54 10° ENE visible
10 Dec ? 06:00:16 29° NNW 06:02:22 71° NE 06:06:51 10° SE visible
11 Dec ? 05:11:56 40° NNE 05:12:22 41° NE 05:16:36 10° ESE visible
11 Dec ? 06:51:21 16° WNW 06:54:21 36° WSW 06:58:30 10° S visible
